Flag for U.S.A. Weather past 2 weeks in Pocatello, Idaho, U.S.A.

Now
65 °F

Scattered clouds.


Feels Like: 65 °F
Forecast: 48 / 64 °F
Wind: 8 mph from Northwest

Location: Pocatello Regional Airport

Current Time: May 22, 2015 at 5:04:17 PM

Latest Report: May 22, 2015 at 3:53 PM


Visibility: 10 mi

Pressure: 29.78 "Hg

Humidity: 40%

Dew point: 40 °F

Location of PocatelloLocation

Historic Weather in Pocatello — Graph

°F

Pocatello temperature yesterday

Maximum temperature yesterday: 68 °F (at 3:53 PM)
Minimum temperature yesterday: 46 °F (at 3:53 AM)
Average temperature yesterday: 56 °F

Past Weeks' High & Low Weather Summary

 TemperatureHumidityPressure
High77 °F (May 12, 4:53 PM)100% (May 8, 6:53 AM)30.08 "Hg (May 8, 6:53 AM)
Low31 °F (May 10, 6:53 AM)13% (May 10, 3:53 PM)29.56 "Hg (May 12, 11:53 PM)
Average53 °F66%29.86 "Hg
* Reported May 7 3:53 PM — May 22 3:53 PM, Pocatello, Weather by CustomWeather, © 2015

Note: Actual official high and low records may vary slightly from our data, if they occured in-between our weather recording intervals... More about our weather records

Advertising

Pocatello weather history for previous 24 hours

 ConditionsComfort  
Time TempWeatherWind HumidityBarometerVisibility
3:53 PM
Fri, May 22
65 °FScattered clouds.8 mph40%29.78 "Hg10 mi
2:53 PM65 °FBroken clouds.7 mph47%29.80 "Hg10 mi
1:53 PM63 °FBroken clouds.3 mph52%29.81 "Hg10 mi
12:53 PM58 °FThunderstorms. Partly sunny.20 mph65%29.84 "Hg10 mi
11:53 AM61 °FBroken clouds.7 mph67%29.83 "Hg10 mi
10:53 AM60 °FScattered clouds.7 mph72%29.84 "Hg10 mi
9:53 AM55 °FPartly sunny.3 mph80%29.86 "Hg10 mi
8:53 AM52 °FPartly sunny.No wind86%29.86 "Hg10 mi
7:53 AM50 °FPassing clouds.No wind93%29.87 "Hg10 mi
6:53 AM49 °FPassing clouds.No wind97%29.84 "Hg10 mi
5:53 AM49 °FOvercast.3 mph93%29.83 "Hg10 mi
4:53 AM48 °FOvercast.No wind93%29.83 "Hg10 mi
3:53 AM50 °FOvercast.7 mph86%29.83 "Hg10 mi
2:53 AM49 °FClear.8 mph90%29.84 "Hg10 mi
1:53 AM48 °FClear.5 mph96%29.85 "Hg10 mi
12:53 AM51 °FOvercast.5 mph92%29.86 "Hg10 mi
11:53 PM
Thu, May 21
51 °FPassing clouds.3 mph92%29.86 "Hg10 mi
10:53 PM53 °FPassing clouds.6 mph83%29.87 "Hg10 mi
9:53 PM54 °FOvercast.6 mph83%29.86 "Hg10 mi
8:53 PM55 °FLight rain. Partly sunny.7 mph72%29.88 "Hg10 mi
7:53 PM58 °FThunderstorms. Partly sunny.17 mph60%29.84 "Hg10 mi
6:53 PM66 °FThunderstorms. Scattered clouds.5 mph40%29.80 "Hg10 mi
5:53 PM68 °FScattered clouds.10 mph39%29.79 "Hg10 mi
Weather by CustomWeather, © 2015

See weather overviewHow to use our weather pages